Location: K�ln
(50.9455°N, 6.9544°E)
Time: 06:44:44
(UTC+01:00)

Tiangong 2 - Visible Passes

Search period start: 22 November 2017 00:00
Search period end: 02 December 2017 00:00
Orbit: 386 x 392 km, 42.8° (Epoch: 21 November)

Date Brightness Start Highest point End Pass type
(mag) Time Alt. Az. Time Alt. Az. Time Alt. Az.
28 Nov 3.9 07:27:56 10° SSW 07:29:58 16° SSE 07:32:01 10° SE visible
29 Nov 4.0 06:30:28 10° S 06:31:59 13° SSE 06:33:31 10° SE visible
30 Nov 3.6 07:07:47 10° SW 07:10:05 18° S 07:12:22 10° SE visible
01 Dec 3.6 06:10:33 12° SSW 06:12:03 16° SSE 06:14:07 10° SE visible
